Location: Bennemühlen
(52.5740°N, 9.7135°E)
Time: 21:21:53
(UTC+00:00)

Tiros 1 despin weight - Pass Details

Date: 19 February 2026
Orbit: 556 x 593 km, 48.2° (Epoch: 8 March)

Event Time Altitude Azimuth Distance (km) Brightness Sun altitude
Rises 15:29:52 0° 245° (WSW) 2,737 ? 9.0°
Reaches altitude 10° 15:32:12 10° 238° (WSW) 1,839 ? 8.7°
Maximum altitude 15:36:08 40° 168° (SSE) 824 ? 8.2°
Drops below altitude 10° 15:40:04 10° 98° (E) 1,839 ? 7.7°
Sets 15:42:24 0° 91° (E) 2,736 ? 7.4°
